Location: Branche des Alpilles
(43.6087°N, 4.6976°E)
Time: 09:42:56
(UTC+00:00)

FENGYUN 1C DEB - Pass Details

Date: 25 June 2021
Orbit: 782 x 878 km, 99.7° (Epoch: 28 July)

Event Time Altitude Azimuth Distance (km) Brightness Sun altitude
Exits shadow 02:17:22 21° 220° (SW) 1,724 ? -14.3°
Maximum altitude 02:19:47 31° 262° (W) 1,386 ? -14.1°
Drops below altitude 10° 02:24:22 10° 324° (NW) 2,362 ? -13.6°
Sets 02:26:57 0° 335° (NNW) 3,288 ? -13.3°
